K4IR Weather Reports


time (UTC)temp
C
wind
direction
speed
KPH
gust
KPH
rain 1hr
cm
rain 24hr
cm
rain mn
cm
humidity
%
barometer
mb
20260506044209 12 86 0.0 0.0 0.00 0.00 0.00 97 1017.0
20260506043204 12 86 0.0 0.0 0.00 0.00 0.00 97 1017.3
20260506042200 12 86 0.0 0.0 0.00 0.00 0.00 97 1017.1
20260506041155 12 86 0.0 0.0 0.00 0.00 0.00 97 1017.3
20260506040155 12 86 0.0 0.0 0.00 0.00 0.00 96 1017.2
20260506035155 12 86 0.0 0.0 0.00 0.00 0.00 96 1017.5
20260506034155 12 86 0.0 0.0 0.00 0.00 0.00 96 1017.5
20260506033154 13 86 0.0 0.0 0.00 0.00 0.00 96 1017.7
20260506032154 13 86 0.0 0.0 0.00 0.00 0.00 96 1017.3
20260506031154 13 86 0.0 0.0 0.00 0.00 0.00 96 1017.6
20260506030149 13 86 0.0 0.0 0.00 0.00 0.00 95 1017.7
20260506025148 13 86 0.0 0.0 0.00 0.00 0.00 95 1017.6
20260506024148 13 86 0.0 0.0 0.00 0.00 0.00 95 1017.6
20260506023147 13 86 0.0 0.0 0.00 0.00 0.00 94 1017.6
20260506022147 13 86 0.0 0.0 0.00 0.00 0.00 94 1017.7
20260506021142 14 86 0.0 0.0 0.00 0.00 0.00 93 1017.5
20260506020143 15 86 0.0 0.0 0.00 0.00 0.00 93 1017.4
20260506015137 15 86 0.0 0.0 0.00 0.00 0.00 92 1017.6
20260506014136 15 86 0.0 0.0 0.00 0.00 0.00 92 1017.4
20260506013131 15 86 0.0 0.0 0.00 0.00 0.00 91 1017.3
20260506012129 15 86 0.0 0.0 0.00 0.00 0.00 90 1017.0
20260506011129 16 86 0.0 0.0 0.00 0.00 0.00 89 1017.3
20260506010125 16 86 0.0 0.0 0.00 0.00 0.00 88 1017.3
20260506005124 16 85 0.0 0.0 0.00 0.00 0.00 87 1017.4
20260506004124 16 85 0.0 0.0 0.00 0.00 0.00 86 1017.5
20260506003122 17 85 0.0 0.0 0.00 0.00 0.00 84 1017.2
20260506002120 17 85 0.0 0.0 0.00 0.00 0.00 82 1017.0
20260506001119 18 85 0.0 0.0 0.00 0.00 0.00 80 1017.4
20260506000119 18 85 0.0 1.6 0.00 0.00 0.00 78 1017.1
20260505235114 18 86 0.0 0.0 0.00 0.00 0.00 76 1017.1
20260505234113 20 85 0.0 0.0 0.00 0.00 0.00 73 1017.0
20260505233108 20 93 0.0 1.6 0.00 0.00 0.00 71 1017.2
20260505232103 20 109 0.0 1.6 0.00 0.00 0.00 70 1017.2
20260505231059 20 109 1.6 1.6 0.00 0.00 0.00 68 1017.4
20260505230058 21 80 1.6 8.0 0.00 0.00 0.00 68 1017.3
20260505225056 21 78 0.0 1.6 0.00 0.00 0.00 67 1017.5
20260505224056 21 306 3.2 3.2 0.00 0.00 0.00 65 1017.3
20260505223055 22 276 3.2 3.2 0.00 0.00 0.00 64 1017.2
20260505222053 22 64 1.6 3.2 0.00 0.00 0.00 63 1017.4
20260505221053 22 44 1.6 4.8 0.00 0.00 0.00 63 1017.4
20260505220048 23 35 3.2 4.8 0.00 0.00 0.00 59 1017.3
20260505215043 23 96 1.6 4.8 0.00 0.00 0.00 62 1017.3
20260505214044 22 7 3.2 9.7 0.00 0.00 0.00 63 1017.3
20260505213043 22 72 0.0 4.8 0.00 0.00 0.00 67 1017.3
20260505212044 22 13 4.8 4.8 0.00 0.00 0.00 66 1017.4
20260505211043 22 154 1.6 3.2 0.00 0.00 0.00 67 1017.6
20260505210037 22 211 4.8 9.7 0.00 0.00 0.00 66 1017.3
20260505205038 22 81 0.0 3.2 0.00 0.00 0.00 66 1017.4
20260505204032 22 309 3.2 4.8 0.00 0.00 0.00 62 1017.3
20260505203032 22 263 1.6 8.0 0.00 0.00 0.00 60 1017.4
20260505202030 23 336 4.8 9.7 0.00 0.00 0.00 58 1017.0
20260505201025 23 89 1.6 4.8 0.00 0.00 0.00 59 1017.2
20260505200019 25 260 4.8 8.0 0.00 0.00 0.00 51 1017.4
20260505195018 25 31 3.2 9.7 0.00 0.00 0.00 55 1017.6
20260505194016 24 157 3.2 4.8 0.00 0.00 0.00 56 1017.8
20260505193010 25 84 1.6 4.8 0.00 0.00 0.00 55 1017.9
20260505192006 24 359 4.8 8.0 0.00 0.00 0.00 55 1017.9
20260505191001 24 71 4.8 12.9 0.00 0.00 0.00 56 1018.1
20260505185958 24 93 1.6 11.3 0.00 0.00 0.00 57 1017.9
20260505184957 24 71 1.6 8.0 0.00 0.00 0.00 56 1017.8
20260505183957 25 117 3.2 4.8 0.00 0.00 0.00 56 1018.0
20260505182956 25 209 4.8 8.0 0.00 0.00 0.00 53 1018.3
20260505181955 25 7 4.8 8.0 0.00 0.00 0.00 53 1018.1
20260505180956 25 111 4.8 11.3 0.00 0.00 0.00 54 1018.4
20260505175955 23 312 3.2 9.7 0.00 0.00 0.00 60 1018.4
20260505174954 23 62 4.8 4.8 0.00 0.00 0.00 59 1018.3
20260505173952 23 127 1.6 4.8 0.00 0.00 0.00 60 1018.5
20260505172952 23 26 4.8 8.0 0.00 0.00 0.00 58 1018.7
20260505171950 24 97 1.6 8.0 0.00 0.00 0.00 58 1018.5
20260505170949 23 108 1.6 8.0 0.00 0.00 0.00 60 1018.4
20260505165948 22 64 1.6 3.2 0.00 0.00 0.00 60 1018.7
20260505164945 24 319 4.8 9.7 0.00 0.00 0.00 55 1018.7
20260505163946 25 33 3.2 4.8 0.00 0.00 0.00 55 1018.9
20260505162943 24 342 3.2 4.8 0.00 0.00 0.00 56 1019.0
20260505161942 24 76 1.6 8.0 0.00 0.00 0.00 56 1018.6
20260505160942 23 38 4.8 11.3 0.00 0.00 0.00 57 1019.1
20260505152934 23 62 1.6 3.2 0.00 0.00 0.00 56 1018.8
20260505151931 22 91 1.6 4.8 0.00 0.00 0.00 62 1019.0
20260505150931 22 69 3.2 4.8 0.00 0.00 0.00 61 1019.0
20260505124903 21 92 0.0 1.6 0.00 0.00 0.00 75 1018.5
20260505123902 21 60 0.0 1.6 0.00 0.00 0.00 80 1018.5
20260505122900 20 60 0.0 0.0 0.00 0.00 0.00 79 1018.5
20260505121900 18 60 0.0 0.0 0.00 0.00 0.00 85 1018.3
20260505120858 16 61 0.0 0.0 0.00 0.00 0.00 96 1018.6
20260505115854 14 60 0.0 0.0 0.00 0.00 0.00 98 1018.3
20260505114849 13 61 0.0 0.0 0.00 0.00 0.00 99 1018.5
20260505113847 11 60 0.0 0.0 0.00 0.00 0.00 99 1018.1
20260505112845 10 60 0.0 0.0 0.00 0.00 0.00 99 1018.0
20260505111845 10 60 0.0 0.0 0.00 0.00 0.00 99 1017.9
20260505110842 10 60 0.0 0.0 0.00 0.00 0.00 98 1017.9
20260505101833 9 60 0.0 0.0 0.00 0.00 0.00 98 1017.3
20260505100830 9 60 0.0 0.0 0.00 0.00 0.00 98 1017.2
20260505095828 9 60 0.0 0.0 0.00 0.00 0.00 98 1017.0
20260505094827 9 60 0.0 0.0 0.00 0.00 0.00 98 1017.2
20260505093825 9 60 0.0 0.0 0.00 0.00 0.00 98 1017.0
20260505092820 9 60 0.0 0.0 0.00 0.00 0.00 98 1017.1
20260505091815 9 60 0.0 0.0 0.00 0.00 0.00 98 1016.6
20260505090811 9 60 0.0 0.0 0.00 0.00 0.00 98 1016.7
20260505085806 10 60 0.0 0.0 0.00 0.00 0.00 98 1016.7
20260505084801 10 60 0.0 0.0 0.00 0.00 0.00 98 1016.7
20260505083756 10 60 0.0 0.0 0.00 0.00 0.00 98 1016.6
20260505082756 10 60 0.0 0.0 0.00 0.00 0.00 98 1016.6
20260505081754 10 60 0.0 0.0 0.00 0.00 0.00 98 1016.6
20260505080754 10 60 0.0 0.0 0.00 0.00 0.00 98 1016.6
20260505075752 10 60 0.0 0.0 0.00 0.00 0.00 97 1016.6
20260505074746 10 60 0.0 0.0 0.00 0.00 0.00 97 1016.5
20260505073741 10 60 0.0 0.0 0.00 0.00 0.00 97 1016.4
20260505072741 10 60 0.0 0.0 0.00 0.00 0.00 97 1016.5
20260505071739 10 60 0.0 0.0 0.00 0.00 0.00 97 1016.8
20260505070734 10 60 0.0 0.0 0.00 0.00 0.00 97 1016.6
20260505065731 11 60 0.0 0.0 0.00 0.00 0.00 97 1016.7
20260505064731 11 60 0.0 0.0 0.00 0.00 0.00 97 1016.6
20260505063726 11 60 0.0 0.0 0.00 0.00 0.00 97 1016.5
20260505062724 11 60 0.0 0.0 0.00 0.00 0.00 96 1016.8
20260505061719 11 60 0.0 0.0 0.00 0.00 0.00 96 1017.0
20260505060714 11 60 0.0 0.0 0.00 0.00 0.00 96 1017.0
20260505055712 11 60 0.0 0.0 0.00 0.00 0.00 96 1017.1
20260505054712 11 60 0.0 0.0 0.00 0.00 0.00 95 1017.3
20260505053708 11 60 0.0 0.0 0.00 0.00 0.00 95 1017.4
20260505052707 11 60 0.0 0.0 0.00 0.00 0.00 95 1017.6
20260505051707 11 60 0.0 0.0 0.00 0.00 0.00 95 1017.6
20260505050703 12 60 0.0 0.0 0.00 0.00 0.00 95 1017.7